Home   Weather   Fort Liard   Past weeks

Flag for Canada Past Weather in Fort Liard, Northwest Territories, Canada — Yesterday and Last 2 Weeks

Now
1 °F

Frigid.


Feels Like: -7 °F
Forecast: -1 / 3 °F
Wind: 3 mph from Northeast

Location: Lindberg Landing

Current Time: Dec 4, 2016 at 11:24:21 am

Latest Report: Dec 4, 2016 at 10:00 am


Visibility: N/A

Pressure: 30.36 "Hg

Humidity: 76%

Dew Point: -5 °F

Location of Fort LiardLocation

Past Weather in Fort Liard — Graph

°F

Fort Liard Temperature Yesterday

Maximum temperature yesterday: 6 °F (at 5:00 am)
Minimum temperature yesterday: 4 °F (at 8:00 am)
Average temperature yesterday: 5 °F

High & Low Weather Summary for the Past Weeks

 TemperatureHumidityPressure
High11 °F (Nov 30, 11:00 pm)97% (Nov 21, 8:00 am)30.36 "Hg (Nov 21, 8:00 am)
Low-21 °F (Nov 22, 9:00 am)72% (Nov 26, 3:00 pm)29.43 "Hg (Nov 27, 2:00 pm)
Average-4 °F83%29.85 "Hg
* Reported Nov 19 10:00 am — Dec 4 10:00 am, Fort Liard, Weather by CustomWeather, © 2016

Note: Actual official high and low records may vary slightly from our data, if they occured in-between our weather recording intervals... More about our weather records

Advertising

Fort Liard Weather History for the Previous 24 Hours

Scroll right to see more
 ConditionsComfort  
Time TempWeatherWind HumidityBarometerVisibility
10:00 am
Sun, Dec 4
1 °FFrigid.3 mph76%30.36 "HgN/A
9:00 am1 °FFrigid.5 mph77%30.33 "HgN/A
8:00 am2 °FFrigid.5 mph76%30.31 "HgN/A
7:00 am2 °FFrigid.5 mph81%30.28 "HgN/A
6:00 am2 °FFrigid.3 mph78%30.26 "HgN/A
5:00 am2 °FFrigid.5 mph78%30.24 "HgN/A
4:00 am2 °FFrigid.5 mph79%30.21 "HgN/A
3:00 am2 °FFrigid.3 mph79%30.19 "HgN/A
2:00 am3 °FFrigid.5 mph80%30.16 "HgN/A
1:00 am4 °FFrigid.6 mph79%30.13 "HgN/A
12:00 am4 °FFrigid.3 mph85%30.11 "HgN/A
11:00 pm
Sat, Dec 3
4 °FFrigid.2 mph81%30.08 "HgN/A
10:00 pm4 °FFrigid.3 mph82%30.05 "HgN/A
9:00 pm5 °FFrigid.5 mph83%30.03 "HgN/A
8:00 pm5 °FFrigid.5 mph80%30.01 "HgN/A
7:00 pm5 °FFrigid.3 mph80%29.99 "HgN/A
6:00 pm5 °FFrigid.2 mph81%29.96 "HgN/A
5:00 pm4 °FFrigid.2 mph83%29.94 "HgN/A
4:00 pm5 °FFrigid.3 mph81%29.92 "HgN/A
3:00 pm5 °FFrigid.5 mph76%29.89 "HgN/A
2:00 pm5 °FFrigid.1 mph81%29.87 "HgN/A
1:00 pm5 °FFrigid.1 mph81%29.84 "HgN/A
12:00 pm6 °FFrigid.1 mph74%29.81 "HgN/A
11:00 am4 °FFrigid.1 mph81%29.79 "HgN/A
Weather by CustomWeather, © 2016

See weather overviewHow to use our weather pages